Weather History for Kankakee, IL

Change the Weather History Date:

Saturday, March 16, 2013

  Actual Average Record
Temperature  
Mean Temperature 34 °F -  
Max Temperature 38 °F 47 °F 109 °F (2003)
Min Temperature 31 °F 26 °F 12 °F (1979)
Degree Days  
Heating Degree Days 31    
Moisture  
Dew Point 30 °F    
Average Humidity 87    
Maximum Humidity 100    
Minimum Humidity 72    
Precipitation  
Precipitation 0.00 in - - ()
Sea Level Pressure  
Sea Level Pressure 29.90 in    
Wind  
Wind Speed 9 mph (North)    
Max Wind Speed 16 mph    
Max Gust Speed 22 mph    
Visibility 7 miles    
Events Thunderstorm    
Averages and records for this station are not official NWS values.
T = Trace of Precipitation, MM = Missing Value Source: NWS Daily Summary

Daily Weather History Graph

Daily Weather History Graph

Search for Another Location

Airport:

Trip Planner

Search our weather history database for the weather conditions in past years. The results will help you decide how hot, cold, wet, or windy it might be!

Date:

Astronomy

Mar. 16, 2013 Rise Set
Actual Time 7:01 AM CDT 6:59 PM CDT
Civil Twilight 6:33 AM CDT 7:26 PM CDT
Nautical Twilight 6:01 AM CDT 7:58 PM CDT
Astronomical Twilight 5:29 AM CDT 8:31 PM CDT
Moon 9:27 AM CDT (3/16) No Moon Set
Length of Visible Light 12h 53m
Length of Day
11h 58m
Waxing Crescent, 23% of the Moon is Illuminated
Mar 16
Waxing Crescent
Mar 19
First Quarter
Mar 27
Full
Apr 2
Last Quarter
Apr 10
New

Hourly Weather History & Observations

Time (CDT) Temp. Windchill Dew Point Humidity Pressure Visibility Wind Dir Wind Speed Gust Speed Precip Events Conditions
12:15 AM 35.1 °F 28.6 °F 35.1 °F 100% 29.72 in 0.8 mi NNE 8.1 mph - N/A   Overcast
12:35 AM 35.1 °F 27.9 °F 35.1 °F 100% 29.70 in 1.2 mi NNE 9.2 mph - N/A   Overcast
12:55 AM 34.9 °F 27.1 °F 34.7 °F 99% 29.70 in 2.5 mi NNE 10.4 mph - N/A   Overcast
1:15 AM 35.1 °F 26.9 °F 34.2 °F 97% 29.69 in 3.0 mi NNE 11.5 mph 16.1 mph N/A   Overcast
1:35 AM 35.2 °F 26.2 °F 34.3 °F 97% 29.69 in 3.0 mi NNE 13.8 mph - N/A   Overcast
1:55 AM 35.6 °F 27.5 °F 34.7 °F 97% 29.68 in 2.5 mi NNE 11.5 mph 17.3 mph N/A   Overcast
2:15 AM 35.6 °F 27.5 °F 34.7 °F 97% 29.68 in 2.5 mi NNE 11.5 mph 17.3 mph N/A   Overcast
2:35 AM 35.6 °F 27.5 °F 34.5 °F 96% 29.67 in 2.5 mi NE 11.5 mph - N/A   Overcast
2:55 AM 35.6 °F 27.1 °F 34.7 °F 97% 29.66 in 2.5 mi NE 12.7 mph 17.3 mph N/A   Overcast
3:15 AM 35.8 °F 29.4 °F 34.7 °F 96% 29.68 in 3.0 mi NNE 8.1 mph - N/A   Overcast
3:35 AM 35.6 °F 29.2 °F 34.7 °F 97% 29.67 in 3.0 mi North 8.1 mph - N/A   Overcast
3:55 AM 35.6 °F 28.6 °F 34.7 °F 97% 29.68 in 3.0 mi North 9.2 mph 17.3 mph N/A   Overcast
4:15 AM 35.2 °F 27.1 °F 34.2 °F 96% 29.68 in 2.5 mi North 11.5 mph 20.7 mph N/A   Overcast
4:35 AM 35.1 °F 26.4 °F 34.2 °F 97% 29.68 in 2.5 mi North 12.7 mph 17.3 mph N/A Thunderstorm Overcast
4:55 AM 35.1 °F 27.9 °F 34.7 °F 99% 29.69 in 2.0 mi NNE 9.2 mph - N/A   Overcast
5:15 AM 35.1 °F 27.4 °F 34.7 °F 99% 29.69 in 2.0 mi North 10.4 mph 16.1 mph N/A Thunderstorm Overcast
5:35 AM 35.1 °F 27.9 °F 34.7 °F 99% 29.70 in 1.8 mi North 9.2 mph - N/A   Overcast
5:55 AM 34.9 °F 28.3 °F 34.7 °F 99% 29.72 in 1.2 mi North 8.1 mph - N/A   Overcast
6:15 AM 35.1 °F 28.6 °F 35.1 °F 100% 29.72 in 1.0 mi North 8.1 mph - N/A   Overcast
6:35 AM 35.1 °F 30.1 °F 35.1 °F 100% 29.72 in 0.8 mi North 5.8 mph - N/A   Overcast
6:55 AM 35.2 °F 28.8 °F 35.2 °F 100% 29.73 in 0.8 mi North 8.1 mph - N/A   Overcast
7:15 AM 35.2 °F 28.8 °F 35.1 °F 99% 29.75 in 2.0 mi North 8.1 mph 16.1 mph N/A   Overcast
7:35 AM 35.6 °F 28.0 °F 34.7 °F 97% 29.77 in 1.8 mi North 10.4 mph - N/A   Overcast
7:55 AM 35.6 °F 28.0 °F 34.5 °F 96% 29.79 in 1.8 mi NNW 10.4 mph - N/A   Overcast
8:15 AM 34.9 °F 28.3 °F 33.8 °F 96% 29.79 in 3.0 mi North 8.1 mph 18.4 mph N/A   Overcast
8:35 AM 34.7 °F 30.6 °F 34.2 °F 98% 29.80 in 1.8 mi North 4.6 mph - N/A   Overcast
8:55 AM 35.1 °F 27.4 °F 34.5 °F 98% 29.82 in 2.0 mi NNW 10.4 mph 16.1 mph N/A   Overcast
9:15 AM 34.7 °F 26.4 °F 32.9 °F 93% 29.84 in 4.0 mi NNW 11.5 mph 21.9 mph N/A   Overcast
9:35 AM 34.7 °F 25.9 °F 32.9 °F 93% 29.85 in 5.0 mi NNW 12.7 mph 16.1 mph N/A   Overcast
9:55 AM 34.7 °F 26.4 °F 32.9 °F 93% 29.85 in 5.0 mi NNW 11.5 mph 16.1 mph N/A   Overcast
10:15 AM 34.9 °F 26.2 °F 32.4 °F 91% 29.87 in 7.0 mi North 12.7 mph 20.7 mph N/A   Overcast
10:35 AM 34.7 °F 26.4 °F 32.2 °F 91% 29.88 in 7.0 mi North 11.5 mph 17.3 mph N/A   Overcast
10:55 AM 34.7 °F 26.4 °F 32.0 °F 90% 29.89 in 10.0 mi North 11.5 mph 20.7 mph N/A   Overcast
11:15 AM 34.0 °F 23.8 °F 32.0 °F 92% 29.90 in 10.0 mi NNW 16.1 mph 20.7 mph N/A   Overcast
11:35 AM 34.0 °F 25.0 °F 31.8 °F 92% 29.92 in 10.0 mi NNW 12.7 mph 20.7 mph N/A   Overcast
11:55 AM 33.8 °F 25.3 °F 31.1 °F 90% 29.92 in 10.0 mi North 11.5 mph - N/A   Overcast
12:15 PM 34.3 °F 25.0 °F 30.6 °F 86% 29.94 in 10.0 mi NNW 13.8 mph 20.7 mph N/A   Overcast
12:35 PM 34.7 °F 26.4 °F 30.7 °F 85% 29.95 in 10.0 mi NNW 11.5 mph 20.7 mph N/A   Overcast
12:55 PM 34.7 °F 25.9 °F 29.8 °F 82% 29.96 in 10.0 mi NNW 12.7 mph 18.4 mph N/A   Overcast
1:15 PM 34.7 °F 25.5 °F 29.7 °F 82% 29.96 in 10.0 mi North 13.8 mph 18.4 mph N/A   Overcast
1:35 PM 35.1 °F 25.2 °F 29.3 °F 80% 29.96 in 10.0 mi North 16.1 mph 19.6 mph N/A   Overcast
1:55 PM 34.9 °F 26.6 °F 29.1 °F 79% 29.97 in 10.0 mi North 11.5 mph - N/A   Overcast
2:15 PM 36.7 °F 28.9 °F 29.3 °F 75% 29.97 in 10.0 mi NNW 11.5 mph 18.4 mph N/A   Overcast
2:35 PM 37.8 °F 30.2 °F 29.3 °F 72% 29.96 in 10.0 mi NNW 11.5 mph 16.1 mph N/A   Overcast
2:55 PM 36.9 °F 29.6 °F 28.8 °F 72% 29.97 in 10.0 mi North 10.4 mph 18.4 mph N/A   Overcast
3:15 PM 36.5 °F 28.2 °F 28.9 °F 74% 29.98 in 10.0 mi North 12.7 mph 16.1 mph N/A   Overcast
3:35 PM 36.1 °F 27.7 °F 28.2 °F 73% 29.99 in 10.0 mi North 12.7 mph 17.3 mph N/A   Overcast
3:55 PM 35.1 °F 26.4 °F 27.0 °F 72% 30.01 in 10.0 mi NNE 12.7 mph - N/A   Overcast
4:15 PM 34.2 °F 25.2 °F 27.1 °F 75% 30.01 in 10.0 mi NNE 12.7 mph - N/A   Overcast
4:35 PM 33.6 °F 25.6 °F 26.4 °F 75% 30.02 in 10.0 mi NNE 10.4 mph 17.3 mph N/A   Overcast
4:55 PM 33.1 °F 23.9 °F 26.2 °F 76% 30.02 in 10.0 mi North 12.7 mph - N/A   Overcast
5:15 PM 33.3 °F 27.9 °F 26.1 °F 75% 30.03 in 10.0 mi North 5.8 mph - N/A   Overcast
5:35 PM 33.3 °F 27.9 °F 26.2 °F 75% 30.04 in 10.0 mi North 5.8 mph - N/A   Overcast
5:55 PM 32.9 °F 27.5 °F 25.5 °F 74% 30.04 in 10.0 mi North 5.8 mph - N/A   Overcast
6:15 PM 32.5 °F 26.2 °F 25.2 °F 74% 30.04 in 10.0 mi North 6.9 mph - N/A   Overcast
6:35 PM 32.4 °F 25.3 °F 25.0 °F 74% 30.04 in 10.0 mi North 8.1 mph - N/A   Overcast
6:55 PM 32.2 °F 26.7 °F 25.2 °F 75% 30.05 in 10.0 mi NNW 5.8 mph - N/A   Overcast
7:15 PM 32.0 °F 26.4 °F 24.6 °F 74% 30.05 in 10.0 mi NNE 5.8 mph - N/A   Overcast
7:35 PM 32.0 °F 26.4 °F 25.3 °F 76% 30.05 in 10.0 mi North 5.8 mph - N/A   Overcast
7:55 PM 32.0 °F 27.5 °F 25.2 °F 76% 30.06 in 10.0 mi NNE 4.6 mph - N/A   Overcast
8:15 PM 32.0 °F 27.5 °F 25.5 °F 77% 30.07 in 10.0 mi NE 4.6 mph - N/A   Overcast
8:35 PM 31.6 °F 28.3 °F 25.2 °F 77% 30.08 in 10.0 mi NNE 3.5 mph - N/A   Overcast
8:55 PM 31.6 °F - 24.8 °F 76% 30.10 in 10.0 mi Calm Calm - N/A   Overcast
9:15 PM 31.6 °F 28.3 °F 24.8 °F 76% 30.10 in 10.0 mi NNE 3.5 mph - N/A   Overcast
9:35 PM 31.5 °F 28.1 °F 25.0 °F 77% 30.11 in 10.0 mi ENE 3.5 mph - N/A   Overcast
9:55 PM 31.5 °F 26.8 °F 25.5 °F 79% 30.10 in 10.0 mi NE 4.6 mph - N/A   Overcast
10:15 PM 31.5 °F 26.8 °F 25.7 °F 79% 30.10 in 10.0 mi NE 4.6 mph - N/A   Overcast
10:35 PM 31.3 °F 26.6 °F 25.5 °F 79% 30.10 in 10.0 mi NE 4.6 mph - N/A   Overcast
10:55 PM 31.1 °F 27.7 °F 24.8 °F 77% 30.11 in 10.0 mi NNE 3.5 mph - N/A   Overcast
11:15 PM 31.1 °F 27.7 °F 24.6 °F 77% 30.11 in 10.0 mi NNE 3.5 mph - N/A   Overcast
11:35 PM 31.1 °F - 24.8 °F 77% 30.11 in 10.0 mi Calm Calm - N/A   Overcast
11:55 PM 31.1 °F - 25.3 °F 79% 30.11 in 10.0 mi Calm Calm - N/A   Overcast